Location: Lac de la Montange Noire
(46.1952°N, 74.2701°W)
Time: 07:13:56
(UTC-05:00)

Iridium 42 - Visible Passes

Search period start: 19 December 2014 00:00
Search period end: 29 December 2014 00:00
Orbit: 776 x 779 km, 86.4° (Epoch: 18 December)

Date Brightness Start Highest point End Pass type
(mag) Time Alt. Az. Time Alt. Az. Time Alt. Az.
21 Dec 8.4 06:38:48 10° NE 06:40:01 11° ENE 06:41:13 10° E visible
24 Dec 8.2 06:37:10 10° NE 06:40:09 15° ENE 06:43:08 10° ESE visible
27 Dec 8.0 06:36:20 10° NNE 06:40:15 21° ENE 06:44:07 10° ESE visible
28 Dec 8.4 06:04:13 10° NE 06:06:13 12° ENE 06:08:12 10° E visible
